Flag for U.S.A. Weather past 2 weeks in Bismarck, North Dakota, U.S.A.

Now
49 °F

Scattered clouds.


Feels Like: 46 °F
Forecast: 45 / 75 °F
Wind: 6 mph from Southeast

Location: Bismarck Municipal Airport

Current Time: May 4, 2015 at 10:18:41 PM

Latest Report: May 4, 2015 at 9:52 PM


Visibility: 10 mi

Pressure: 30.15 "Hg

Humidity: 48%

Dew point: 30 °F

Location of BismarckLocation

Historic Weather in Bismarck — Graph

°F

Bismarck temperature yesterday

Maximum temperature yesterday: 67 °F (at 2:52 PM)
Minimum temperature yesterday: 49 °F (at 11:52 PM)
Average temperature yesterday: 58 °F

Past Weeks' High & Low Weather Summary

 TemperatureHumidityPressure
High85 °F (May 2, 2:52 PM)100% (Apr 26, 7:03 AM)30.38 "Hg (Apr 26, 7:03 AM)
Low20 °F (Apr 22, 5:52 AM)13% (Apr 20, 2:52 PM)29.58 "Hg (May 2, 4:52 PM)
Average50 °F53%29.97 "Hg
* Reported Apr 19 8:52 PM — May 4 8:52 PM, Bismarck, Weather by CustomWeather, © 2015

Note: Actual official high and low records may vary slightly from our data, if they occured in-between our weather recording intervals... More about our weather records

Advertising

Bismarck weather history for previous 24 hours

 ConditionsComfort  
Time TempWeatherWind HumidityBarometerVisibility
8:52 PM
Mon, May 4
55 °FScattered clouds.3 mph34%30.14 "Hg10 mi
7:52 PM65 °FSunny.10 mph22%30.14 "Hg10 mi
6:52 PM67 °FSunny.14 mph20%30.15 "Hg10 mi
5:52 PM68 °FSunny.13 mph19%30.16 "Hg10 mi
4:52 PM69 °FSunny.13 mph19%30.17 "Hg10 mi
3:52 PM69 °FSunny.14 mph19%30.19 "Hg10 mi
2:52 PM69 °FSunny.13 mph18%30.19 "Hg10 mi
1:52 PM67 °FSunny.8 mph20%30.21 "Hg10 mi
12:52 PM66 °FSunny.6 mph20%30.23 "Hg10 mi
11:52 AM64 °FSunny.13 mph24%30.24 "Hg10 mi
10:52 AM57 °FSunny.No wind37%30.26 "Hg10 mi
9:52 AM51 °FSunny.No wind44%30.25 "Hg10 mi
8:52 AM44 °FSunny.No wind60%30.25 "Hg10 mi
7:52 AM39 °FSunny.3 mph70%30.23 "Hg8 mi
6:52 AM37 °FClear.No wind70%30.21 "Hg10 mi
5:52 AM32 °FClear.No wind82%30.20 "Hg10 mi
4:52 AM33 °FPassing clouds.No wind72%30.19 "Hg10 mi
3:52 AM33 °FClear.No wind70%30.17 "Hg10 mi
2:52 AM41 °FClear.No wind58%30.15 "Hg10 mi
1:52 AM43 °FClear.9 mph53%30.13 "Hg10 mi
12:52 AM44 °FClear.No wind47%30.14 "Hg10 mi
11:52 PM
Sun, May 3
49 °FClear.No wind38%30.11 "Hg10 mi
10:52 PM53 °FClear.6 mph30%30.09 "Hg10 mi
Weather by CustomWeather, © 2015

See weather overviewHow to use our weather pages